IBE03GR LEMD-KMIA

Flight info

Callsign IBE03GR
Flight time N/A
Altitude 34000
Route BARDI DCT INKIT DCT EPOPO/N0475F360 DCT ARMED/M083F360 DCT 42N020W 40N030W 38N040W/M083F380 33N050W 30N060W/M083F400 27N070W DCT MILLE/N0473F400 DCT ZQA BR49V NICKO VIICE2
Aircraft A333/H-SDE3GHIJ2J3J5M1RVWXY/LB2D1

Departure

Time 2026-05-05 23:20
Airport Adolfo Suárez Madrid–Barajas Airport (LEMD)

Arrival

Time N/A
Airport Miami International Airport (KMIA)
Time Latitude Longitude Altitude Speed Heading
2026-05-05 22:41 40.49144 -3.56661 1975 ft 0 kts 271°
2026-05-05 23:08 40.49144 -3.56660 1975 ft 2 kts 271°
2026-05-05 23:08 40.49144 -3.56628 1975 ft 4 kts 269°
2026-05-05 23:08 40.49144 -3.56592 1975 ft 4 kts 269°
2026-05-05 23:09 40.49144 -3.56562 1974 ft 4 kts 292°
2026-05-05 23:09 40.49128 -3.56542 1977 ft 4 kts 355°
2026-05-05 23:09 40.49105 -3.56542 1975 ft 1 kts 360°
2026-05-05 23:09 40.49101 -3.56542 1975 ft 0 kts 360°
2026-05-05 23:11 40.49119 -3.56543 1976 ft 4 kts 357°
2026-05-05 23:12 40.49156 -3.56544 1978 ft 7 kts 359°
2026-05-05 23:12 40.49208 -3.56543 1974 ft 8 kts
2026-05-05 23:12 40.49277 -3.56543 1973 ft 12 kts
2026-05-05 23:12 40.49363 -3.56544 1975 ft 14 kts
2026-05-05 23:13 40.49472 -3.56545 1978 ft 17 kts 360°
2026-05-05 23:13 40.49601 -3.56546 1976 ft 19 kts 359°
2026-05-05 23:13 40.49727 -3.56546 1977 ft 17 kts 358°
2026-05-05 23:13 40.49842 -3.56548 1974 ft 16 kts
2026-05-05 23:14 40.49946 -3.56548 1977 ft 14 kts
2026-05-05 23:14 40.50019 -3.56587 1980 ft 10 kts 293°
2026-05-05 23:14 40.50025 -3.56695 1982 ft 15 kts 269°
2026-05-05 23:14 40.50024 -3.56849 1982 ft 18 kts 269°
2026-05-05 23:15 40.50023 -3.57008 1983 ft 15 kts 269°
2026-05-05 23:15 40.50001 -3.57109 1986 ft 9 kts 215°
2026-05-05 23:15 40.49945 -3.57119 1990 ft 11 kts 181°
2026-05-05 23:15 40.49839 -3.57119 1992 ft 20 kts 179°
2026-05-05 23:16 40.49680 -3.57118 1988 ft 24 kts 179°
2026-05-05 23:16 40.49515 -3.57117 1984 ft 24 kts 180°
2026-05-05 23:16 40.49363 -3.57116 1982 ft 18 kts 179°
2026-05-05 23:16 40.49253 -3.57114 1984 ft 12 kts 179°
2026-05-05 23:17 40.49191 -3.57146 1987 ft 8 kts 238°
2026-05-05 23:17 40.49183 -3.57209 1986 ft 6 kts 265°
2026-05-05 23:17 40.49181 -3.57255 1986 ft 5 kts 270°
2026-05-05 23:17 40.49181 -3.57326 1987 ft 9 kts 269°
2026-05-05 23:18 40.49185 -3.57409 1992 ft 11 kts 288°
2026-05-05 23:18 40.49237 -3.57449 1991 ft 9 kts 352°
2026-05-05 23:18 40.49264 -3.57451 1990 ft 0 kts 358°
2026-05-05 23:19 40.49278 -3.57451 1989 ft 10 kts 359°
2026-05-05 23:19 40.49537 -3.57453 1988 ft 66 kts 359°
2026-05-05 23:19 40.50187 -3.57459 1991 ft 119 kts 360°
2026-05-05 23:19 40.51180 -3.57467 1998 ft 165 kts 360°
2026-05-05 23:20 40.52394 -3.57487 2434 ft 175 kts
2026-05-05 23:20 40.53587 -3.57492 2876 ft 171 kts
2026-05-05 23:20 40.54793 -3.57483 3142 ft 175 kts
2026-05-05 23:20 40.56011 -3.57215 3437 ft 180 kts 15°
2026-05-05 23:21 40.57235 -3.56737 3715 ft 187 kts 18°
2026-05-05 23:21 40.58499 -3.56226 4004 ft 193 kts 18°
2026-05-05 23:21 40.59816 -3.55713 4259 ft 202 kts 16°
2026-05-05 23:21 40.61201 -3.55214 4506 ft 212 kts 12°
2026-05-05 23:22 40.62684 -3.54753 4735 ft 225 kts 15°
2026-05-05 23:22 40.64240 -3.54262 5013 ft 236 kts 10°
2026-05-05 23:22 40.65902 -3.54001 5331 ft 245 kts
2026-05-05 23:22 40.67619 -3.53922 5814 ft 246 kts 359°
2026-05-05 23:23 40.69282 -3.54286 6433 ft 242 kts 336°
2026-05-05 23:23 40.70544 -3.55674 6951 ft 240 kts 300°
2026-05-05 23:23 40.71095 -3.57751 7460 ft 242 kts 286°
2026-05-05 23:23 40.71383 -3.59941 7967 ft 246 kts 275°
2026-05-05 23:24 40.71221 -3.62200 8389 ft 253 kts 253°
2026-05-05 23:24 40.70389 -3.64266 8887 ft 258 kts 235°
2026-05-05 23:24 40.69276 -3.66129 9448 ft 260 kts 232°
2026-05-05 23:24 40.68116 -3.67966 10001 ft 261 kts 231°
2026-05-05 23:25 40.66954 -3.69812 10506 ft 263 kts 232°
2026-05-05 23:25 40.65807 -3.71659 10992 ft 264 kts 233°
2026-05-05 23:25 40.64868 -3.73734 11448 ft 265 kts 251°
2026-05-05 23:25 40.64516 -3.76108 11959 ft 265 kts 266°
2026-05-05 23:26 40.64432 -3.78536 12471 ft 266 kts 269°
2026-05-05 23:26 40.64391 -3.80983 12978 ft 268 kts 269°
2026-05-05 23:26 40.64349 -3.83444 13455 ft 270 kts 269°
2026-05-05 23:26 40.64300 -3.85929 13926 ft 271 kts 269°
2026-05-05 23:27 40.64247 -3.88397 14479 ft 269 kts 269°
2026-05-05 23:27 40.64190 -3.90863 14889 ft 271 kts 269°
2026-05-05 23:27 40.64132 -3.93346 15351 ft 272 kts 269°
2026-05-05 23:27 40.64072 -3.95839 15813 ft 272 kts 269°
2026-05-05 23:28 40.64011 -3.98332 16270 ft 273 kts 269°
2026-05-05 23:28 40.63948 -4.00829 16760 ft 273 kts 269°
2026-05-05 23:28 40.63885 -4.03325 17239 ft 273 kts 269°
2026-05-05 23:28 40.63822 -4.05818 17713 ft 273 kts 269°
2026-05-05 23:29 40.63758 -4.08315 18158 ft 273 kts 269°
2026-05-05 23:29 40.63694 -4.10815 18562 ft 273 kts 269°
2026-05-05 23:29 40.63629 -4.13309 18945 ft 273 kts 269°
2026-05-05 23:29 40.63580 -4.15816 19298 ft 274 kts 270°
2026-05-05 23:30 40.63545 -4.18325 19685 ft 274 kts 270°
2026-05-05 23:30 40.63521 -4.19988 19946 ft 274 kts 270°
2026-05-05 23:30 40.63473 -4.23352 20455 ft 275 kts 270°
2026-05-05 23:30 40.63434 -4.25864 20827 ft 276 kts 270°
2026-05-05 23:31 40.63394 -4.28395 21184 ft 276 kts 270°
2026-05-05 23:31 40.63353 -4.30929 21527 ft 278 kts 270°
2026-05-05 23:31 40.63311 -4.33472 21864 ft 279 kts 270°
2026-05-05 23:31 40.63269 -4.36039 22126 ft 283 kts 270°
2026-05-05 23:32 40.63226 -4.38620 22316 ft 289 kts 269°
2026-05-05 23:32 40.63162 -4.41287 22514 ft 294 kts 269°
2026-05-05 23:32 40.63107 -4.43978 22817 ft 296 kts 269°
2026-05-05 23:32 40.63066 -4.46724 22967 ft 304 kts 269°
2026-05-05 23:33 40.63023 -4.49524 23113 ft 310 kts 269°
2026-05-05 23:33 40.62975 -4.52391 23288 ft 316 kts 269°
2026-05-05 23:33 40.62924 -4.55310 23487 ft 321 kts 269°
2026-05-05 23:33 40.62870 -4.58273 23655 ft 327 kts 269°
2026-05-05 23:34 40.62814 -4.61289 23800 ft 333 kts 269°
2026-05-05 23:34 40.62755 -4.64358 23933 ft 338 kts 269°
2026-05-05 23:34 40.62715 -4.66461 24034 ft 342 kts 269°
2026-05-05 23:34 40.62653 -4.69613 24170 ft 347 kts 269°
2026-05-05 23:35 40.62589 -4.72809 24313 ft 352 kts 269°
2026-05-05 23:35 40.62524 -4.76011 24462 ft 357 kts 269°
2026-05-05 23:35 40.62456 -4.79340 24591 ft 362 kts 269°
2026-05-05 23:35 40.62386 -4.82675 24716 ft 367 kts 269°
2026-05-05 23:36 40.62316 -4.86011 24846 ft 371 kts 269°
2026-05-05 23:36 40.62243 -4.89432 24962 ft 376 kts 269°
2026-05-05 23:36 40.62168 -4.92894 25110 ft 380 kts 269°
2026-05-05 23:36 40.62091 -4.96392 25214 ft 385 kts 269°
2026-05-05 23:37 40.62012 -4.99935 25341 ft 389 kts 269°
2026-05-05 23:37 40.61931 -5.03503 25609 ft 390 kts 269°
2026-05-05 23:37 40.61849 -5.07065 25893 ft 390 kts 269°
2026-05-05 23:37 40.61767 -5.10641 26169 ft 391 kts 269°
2026-05-05 23:38 40.61683 -5.14217 26405 ft 392 kts 269°
2026-05-05 23:38 40.61597 -5.17810 26643 ft 393 kts 269°
2026-05-05 23:38 40.61510 -5.21416 26888 ft 394 kts 269°
2026-05-05 23:38 40.61421 -5.25030 27110 ft 396 kts 268°
2026-05-05 23:39 40.61331 -5.28652 27339 ft 397 kts 268°
2026-05-05 23:39 40.61240 -5.32291 27560 ft 398 kts 268°
2026-05-05 23:39 40.61147 -5.35948 27723 ft 401 kts 268°
2026-05-05 23:39 40.61053 -5.39630 27910 ft 403 kts 268°
2026-05-05 23:40 40.60957 -5.43315 28140 ft 404 kts 268°
2026-05-05 23:40 40.60860 -5.46966 28355 ft 405 kts 268°
2026-05-05 23:40 40.60761 -5.50670 28563 ft 406 kts 268°
2026-05-05 23:40 40.60661 -5.54397 28775 ft 408 kts 268°
2026-05-05 23:41 40.60559 -5.58117 29108 ft 405 kts 268°
2026-05-05 23:41 40.60457 -5.61815 29509 ft 403 kts 268°
2026-05-05 23:41 40.60354 -5.65509 29638 ft 406 kts 268°
2026-05-05 23:41 40.60249 -5.69236 29757 ft 409 kts 268°
2026-05-05 23:42 40.60141 -5.72988 29867 ft 412 kts 268°
2026-05-05 23:42 40.60032 -5.76765 29966 ft 415 kts 268°
2026-05-05 23:42 40.59921 -5.80571 30085 ft 418 kts 268°
2026-05-05 23:42 40.59807 -5.84408 30189 ft 420 kts 268°
2026-05-05 23:43 40.59692 -5.88258 30313 ft 422 kts 268°
2026-05-05 23:43 40.59575 -5.92120 30503 ft 422 kts 268°
2026-05-05 23:43 40.59458 -5.95972 30726 ft 421 kts 268°
2026-05-05 23:43 40.59339 -5.99821 30966 ft 420 kts 268°
2026-05-05 23:44 40.59219 -6.03662 31182 ft 419 kts 268°
2026-05-05 23:44 40.59099 -6.07486 31429 ft 418 kts 268°
2026-05-05 23:44 40.58977 -6.11304 31624 ft 418 kts 267°
2026-05-05 23:44 40.58853 -6.15119 31783 ft 419 kts 267°
2026-05-05 23:45 40.58728 -6.18966 32018 ft 418 kts 267°
2026-05-05 23:45 40.58605 -6.22732 32229 ft 417 kts 268°
2026-05-05 23:45 40.58629 -6.26538 32472 ft 416 kts 274°
2026-05-05 23:45 40.59038 -6.30302 32657 ft 416 kts 281°
2026-05-05 23:46 40.59867 -6.33937 32478 ft 416 kts 289°
2026-05-05 23:46 40.61042 -6.37444 31869 ft 422 kts 292°
2026-05-05 23:46 40.62341 -6.40932 31275 ft 427 kts 294°
2026-05-05 23:46 40.63700 -6.44422 30748 ft 430 kts 294°
2026-05-05 23:47 40.65082 -6.47921 30271 ft 432 kts 295°
2026-05-05 23:47 40.66463 -6.51428 29858 ft 430 kts 295°
2026-05-05 23:47 40.69208 -6.58488 30173 ft 433 kts 294°
2026-05-05 23:48 40.70564 -6.62019 30378 ft 434 kts 294°
2026-05-05 23:48 40.71926 -6.65580 30632 ft 434 kts 294°
2026-05-05 23:48 40.73279 -6.69131 30934 ft 432 kts 294°
2026-05-05 23:48 40.74622 -6.72661 31207 ft 430 kts 294°
2026-05-05 23:49 40.75963 -6.76190 31460 ft 430 kts 294°
2026-05-05 23:49 40.77296 -6.79703 31694 ft 430 kts 294°
2026-05-05 23:49 40.78634 -6.83232 31922 ft 430 kts 294°
2026-05-05 23:49 40.79966 -6.86751 32155 ft 429 kts 294°
2026-05-05 23:50 40.81302 -6.90281 32402 ft 428 kts 294°
2026-05-05 23:50 40.82631 -6.93797 32635 ft 428 kts 294°
2026-05-05 23:50 40.83957 -6.97308 32871 ft 427 kts 294°
2026-05-05 23:50 40.85263 -7.00773 33093 ft 427 kts 294°
2026-05-05 23:51 40.86583 -7.04278 33330 ft 426 kts 294°
2026-05-05 23:51 40.87903 -7.07786 33550 ft 426 kts 294°
2026-05-05 23:51 40.89217 -7.11283 33769 ft 425 kts 294°
2026-05-05 23:51 40.90530 -7.14783 33975 ft 425 kts 294°
2026-05-05 23:52 40.91840 -7.18278 34163 ft 425 kts 294°
2026-05-05 23:52 40.93153 -7.21786 34278 ft 426 kts 294°
2026-05-05 23:52 40.95788 -7.28839 34468 ft 428 kts 294°
2026-05-05 23:53 40.97103 -7.32364 34650 ft 428 kts 294°
2026-05-05 23:53 40.98419 -7.35895 34796 ft 427 kts 294°
2026-05-05 23:53 40.99731 -7.39421 34940 ft 428 kts 294°
2026-05-05 23:53 41.01043 -7.42952 35062 ft 428 kts 294°
2026-05-05 23:54 41.02357 -7.46491 35202 ft 428 kts 294°
2026-05-05 23:54 41.03669 -7.50031 35339 ft 428 kts 294°
2026-05-05 23:54 41.04979 -7.53568 35468 ft 428 kts 294°
2026-05-05 23:54 41.06292 -7.57117 35596 ft 428 kts 294°
2026-05-05 23:55 41.07600 -7.60659 35716 ft 429 kts 294°
2026-05-05 23:55 41.08910 -7.64211 35773 ft 430 kts 294°
2026-05-05 23:55 41.10218 -7.67763 35895 ft 431 kts 294°
2026-05-05 23:55 41.11541 -7.71358 35953 ft 432 kts 294°
2026-05-05 23:56 41.14176 -7.78531 36078 ft 434 kts 294°
2026-05-05 23:56 41.16820 -7.85745 36082 ft 434 kts 294°
2026-05-05 23:57 41.19407 -7.92988 36094 ft 434 kts 293°
2026-05-05 23:57 41.21884 -8.00283 36079 ft 433 kts 292°
2026-05-05 23:58 41.24326 -8.07540 36085 ft 433 kts 292°
2026-05-05 23:58 41.26794 -8.14866 36099 ft 434 kts 292°
2026-05-05 23:59 41.29264 -8.22190 36092 ft 435 kts 292°
2026-05-05 23:59 41.31739 -8.29539 36089 ft 435 kts 292°
2026-05-06 00:00 41.34208 -8.36893 36083 ft 435 kts 293°
2026-05-06 00:00 41.36672 -8.44250 36090 ft 435 kts 293°
2026-05-06 00:01 41.39132 -8.51615 36097 ft 435 kts 292°
2026-05-06 00:01 41.41588 -8.58987 36093 ft 435 kts 292°
2026-05-06 00:02 41.44039 -8.66366 36094 ft 435 kts 292°
2026-05-06 00:02 41.46489 -8.73763 36088 ft 437 kts 293°
2026-05-06 00:03 41.48929 -8.81148 36089 ft 439 kts 293°
2026-05-06 00:03 41.51384 -8.88598 36084 ft 439 kts 293°
2026-05-06 00:04 41.53834 -8.96053 36094 ft 439 kts 293°
2026-05-06 00:04 41.56280 -9.03519 36094 ft 439 kts 293°
2026-05-06 00:05 41.59940 -9.14725 36094 ft 439 kts 293°
2026-05-06 00:06 41.62380 -9.22221 36105 ft 440 kts 293°
2026-05-06 00:06 41.64818 -9.29731 36099 ft 441 kts 293°
2026-05-06 00:07 41.67251 -9.37249 36100 ft 441 kts 293°
2026-05-06 00:07 41.69683 -9.44782 36106 ft 441 kts 293°
2026-05-06 00:08 41.72109 -9.52321 36102 ft 441 kts 293°
2026-05-06 00:08 41.74531 -9.59865 36104 ft 441 kts 293°
2026-05-06 00:09 41.76935 -9.67376 36105 ft 441 kts 293°
2026-05-06 00:09 41.79349 -9.74936 36120 ft 441 kts 293°
2026-05-06 00:10 41.81760 -9.82511 36116 ft 442 kts 293°
2026-05-06 00:10 41.84168 -9.90098 36116 ft 442 kts 293°
2026-05-06 00:11 41.86574 -9.97698 36113 ft 442 kts 293°
2026-05-06 00:11 41.88972 -10.05297 36121 ft 442 kts 293°
2026-05-06 00:12 41.91366 -10.12902 36120 ft 442 kts 293°
2026-05-06 00:12 41.93601 -10.20596 36103 ft 442 kts 286°
2026-05-06 00:13 41.95099 -10.28612 36128 ft 443 kts 284°
2026-05-06 00:13 41.96444 -10.36712 36126 ft 445 kts 283°
2026-05-06 00:14 41.97757 -10.44834 36130 ft 445 kts 283°
2026-05-06 00:14 41.99073 -10.52957 36128 ft 445 kts 283°
2026-05-06 00:15 42.00392 -10.61084 36140 ft 445 kts 283°
2026-05-06 00:15 42.01700 -10.69151 36128 ft 445 kts 283°
2026-05-06 00:16 42.03011 -10.77280 36130 ft 445 kts 283°
2026-05-06 00:16 42.04315 -10.85406 36142 ft 445 kts 283°
2026-05-06 00:17 42.05614 -10.93543 36129 ft 445 kts 283°
2026-05-06 00:17 42.06906 -11.01677 36142 ft 445 kts 283°
2026-05-06 00:18 42.08194 -11.09821 36134 ft 445 kts 283°
2026-05-06 00:18 42.09477 -11.17978 36151 ft 445 kts 283°
2026-05-06 00:19 42.10756 -11.26144 36140 ft 446 kts 283°
2026-05-06 00:19 42.12027 -11.34308 36145 ft 446 kts 283°
2026-05-06 00:20 42.13293 -11.42477 36144 ft 445 kts 283°
2026-05-06 00:20 42.14546 -11.50598 36146 ft 445 kts 283°
2026-05-06 00:21 42.15801 -11.58774 36143 ft 446 kts 283°
2026-05-06 00:21 42.17050 -11.66952 36147 ft 446 kts 283°
2026-05-06 00:22 42.18294 -11.75139 36152 ft 446 kts 282°
2026-05-06 00:22 42.19533 -11.83332 36153 ft 446 kts 282°
2026-05-06 00:23 42.20764 -11.91516 36153 ft 446 kts 282°
2026-05-06 00:23 42.21990 -11.99710 36151 ft 446 kts 282°
2026-05-06 00:24 42.23210 -12.07905 36156 ft 446 kts 282°
2026-05-06 00:24 42.24425 -12.16112 36159 ft 446 kts 282°
2026-05-06 00:25 42.25635 -12.24321 36159 ft 446 kts 282°
2026-05-06 00:25 42.26839 -12.32536 36161 ft 446 kts 282°
2026-05-06 00:26 42.28037 -12.40757 36152 ft 446 kts 282°
2026-05-06 00:26 42.29029 -12.47592 36164 ft 446 kts 282°
2026-05-06 00:27 42.30217 -12.55822 36163 ft 446 kts 282°
2026-05-06 00:27 42.31400 -12.64059 36170 ft 446 kts 282°
2026-05-06 00:28 42.32577 -12.72299 36169 ft 447 kts 282°
2026-05-06 00:28 42.33748 -12.80543 36169 ft 447 kts 282°
2026-05-06 00:29 42.34915 -12.88800 36177 ft 447 kts 282°
2026-05-06 00:29 42.36076 -12.97060 36175 ft 447 kts 282°
2026-05-06 00:30 42.37223 -13.05268 36176 ft 447 kts 281°
2026-05-06 00:30 42.38373 -13.13539 36170 ft 447 kts 281°
2026-05-06 00:31 42.39515 -13.21801 36182 ft 447 kts 281°
2026-05-06 00:31 42.40651 -13.30069 36181 ft 447 kts 281°
2026-05-06 00:32 42.41782 -13.38340 36186 ft 447 kts 281°
2026-05-06 00:32 42.42907 -13.46616 36186 ft 447 kts 281°
2026-05-06 00:33 42.44025 -13.54891 36188 ft 447 kts 281°
2026-05-06 00:33 42.45138 -13.63171 36190 ft 447 kts 281°
2026-05-06 00:34 42.46245 -13.71459 36193 ft 447 kts 281°
2026-05-06 00:34 42.47346 -13.79741 36192 ft 447 kts 281°
2026-05-06 00:35 42.48441 -13.88032 36188 ft 447 kts 281°
2026-05-06 00:35 42.49518 -13.96323 36195 ft 447 kts 279°
2026-05-06 00:36 42.49710 -14.04742 36195 ft 449 kts 269°
2026-05-06 00:36 42.49309 -14.13192 36197 ft 450 kts 268°
2026-05-06 00:37 42.48792 -14.21640 36188 ft 450 kts 267°
2026-05-06 00:37 42.48267 -14.30084 36200 ft 450 kts 268°
2026-05-06 00:38 42.47753 -14.38529 36203 ft 450 kts 268°
2026-05-06 00:38 42.47246 -14.46918 36203 ft 450 kts 268°
2026-05-06 00:39 42.46731 -14.55354 36203 ft 450 kts 268°
2026-05-06 00:39 42.46208 -14.63790 36203 ft 449 kts 269°
2026-05-06 00:40 42.45679 -14.72225 36206 ft 449 kts 269°
2026-05-06 00:40 42.45145 -14.80645 36208 ft 449 kts 269°
2026-05-06 00:41 42.44605 -14.89067 36208 ft 449 kts 269°
2026-05-06 00:41 42.44057 -14.97490 36207 ft 449 kts 269°
2026-05-06 00:42 42.43504 -15.05898 36212 ft 448 kts 269°
2026-05-06 00:42 42.42946 -15.14299 36211 ft 448 kts 269°
2026-05-06 00:43 42.42383 -15.22698 36214 ft 448 kts 269°
2026-05-06 00:43 42.41813 -15.31097 36214 ft 448 kts 269°
2026-05-06 00:44 42.41236 -15.39499 36216 ft 448 kts 269°
2026-05-06 00:44 42.40653 -15.47895 36216 ft 448 kts 269°
2026-05-06 00:45 42.40064 -15.56287 36221 ft 448 kts 269°
2026-05-06 00:45 42.39469 -15.64679 36201 ft 448 kts 270°
2026-05-06 00:46 42.38868 -15.73062 36222 ft 447 kts 270°
2026-05-06 00:46 42.38267 -15.81369 36224 ft 446 kts 270°
2026-05-06 00:47 42.37657 -15.89723 36225 ft 446 kts 270°
2026-05-06 00:47 42.37040 -15.98074 36227 ft 447 kts 270°
2026-05-06 00:48 42.36418 -16.06420 36226 ft 445 kts 270°
2026-05-06 00:48 42.35790 -16.14749 36227 ft 445 kts 270°
2026-05-06 00:49 42.35157 -16.23066 36238 ft 445 kts 270°
2026-05-06 00:49 42.34519 -16.31380 36235 ft 445 kts 270°
2026-05-06 00:50 42.33875 -16.39690 36236 ft 444 kts 270°
2026-05-06 00:50 42.33229 -16.47937 36245 ft 444 kts 270°
2026-05-06 00:51 42.32574 -16.56236 36245 ft 444 kts 270°
2026-05-06 00:51 42.31913 -16.64529 36239 ft 444 kts 270°
2026-05-06 00:52 42.31246 -16.72821 36240 ft 444 kts 269°
2026-05-06 00:52 42.30572 -16.81122 36243 ft 444 kts 269°
2026-05-06 00:53 42.29892 -16.89415 36248 ft 444 kts 269°
2026-05-06 00:53 42.29206 -16.97712 36249 ft 444 kts 269°
2026-05-06 00:54 42.28514 -17.06008 36230 ft 444 kts 269°
2026-05-06 00:54 42.27816 -17.14305 36255 ft 445 kts 269°
2026-05-06 00:55 42.27111 -17.22606 36252 ft 445 kts 269°
2026-05-06 00:55 42.26399 -17.30911 36252 ft 445 kts 269°
2026-05-06 00:56 42.25683 -17.39205 36259 ft 445 kts 269°
2026-05-06 00:56 42.24959 -17.47511 36262 ft 445 kts 269°
2026-05-06 00:57 42.24235 -17.55752 36258 ft 445 kts 268°
2026-05-06 00:57 42.23499 -17.64052 36262 ft 445 kts 268°
2026-05-06 00:58 42.22758 -17.72354 36267 ft 445 kts 268°
2026-05-06 00:58 42.22011 -17.80645 36264 ft 446 kts 268°
2026-05-06 00:59 42.21256 -17.88949 36267 ft 446 kts 268°
2026-05-06 00:59 42.20497 -17.97237 36268 ft 445 kts 268°
2026-05-06 01:00 42.19731 -18.05532 36273 ft 445 kts 268°
2026-05-06 01:00 42.18961 -18.13810 36272 ft 445 kts 268°
2026-05-06 01:01 42.18185 -18.22086 36276 ft 445 kts 268°
2026-05-06 01:01 42.17407 -18.30309 36276 ft 445 kts 268°
2026-05-06 01:02 42.16619 -18.38584 36276 ft 445 kts 268°
2026-05-06 01:02 42.15824 -18.46857 36270 ft 445 kts 268°
2026-05-06 01:03 42.15024 -18.55119 36280 ft 444 kts 268°
2026-05-06 01:03 42.14220 -18.63362 36283 ft 444 kts 268°
2026-05-06 01:04 42.13410 -18.71613 36280 ft 444 kts 268°
2026-05-06 01:04 42.12595 -18.79853 36278 ft 444 kts 268°
2026-05-06 01:05 42.11772 -18.88102 36282 ft 444 kts 268°
2026-05-06 01:05 42.10933 -18.96454 36277 ft 444 kts 268°
2026-05-06 01:06 42.10099 -19.04693 36285 ft 444 kts 268°
2026-05-06 01:06 42.09259 -19.12928 36260 ft 444 kts 268°
2026-05-06 01:07 42.08413 -19.21154 36287 ft 443 kts 269°
2026-05-06 01:07 42.07563 -19.29366 36292 ft 443 kts 269°
2026-05-06 01:08 42.06714 -19.37520 36289 ft 443 kts 268°
2026-05-06 01:08 42.05854 -19.45720 36289 ft 443 kts 268°
2026-05-06 01:09 42.04988 -19.53908 36290 ft 441 kts 269°
2026-05-06 01:09 42.04118 -19.62077 36290 ft 441 kts 269°
2026-05-06 01:10 42.03245 -19.70236 36295 ft 441 kts 269°
2026-05-06 01:10 42.02366 -19.78391 36295 ft 441 kts 269°
2026-05-06 01:11 42.01479 -19.86545 36298 ft 440 kts 269°
2026-05-06 01:11 42.00589 -19.94675 36300 ft 439 kts 269°
2026-05-06 01:12 41.99631 -20.02804 36298 ft 442 kts 268°
2026-05-06 01:12 41.98417 -20.10914 36303 ft 443 kts 266°
2026-05-06 01:13 41.97134 -20.19018 36303 ft 442 kts 266°
2026-05-06 01:13 41.95875 -20.27040 36304 ft 441 kts 267°
2026-05-06 01:14 41.94000 -20.39143 36305 ft 441 kts 267°
2026-05-06 01:14 41.92952 -20.45898 36306 ft 441 kts 267°
2026-05-06 01:15 41.91694 -20.53954 36311 ft 440 kts 267°
2026-05-06 01:15 41.90228 -20.63288 36312 ft 440 kts 267°
2026-05-06 01:16 41.89169 -20.70011 36309 ft 440 kts 267°
2026-05-06 01:16 41.87906 -20.77986 36316 ft 440 kts 267°
2026-05-06 01:17 41.86629 -20.86001 36311 ft 439 kts 267°
2026-05-06 01:17 41.85348 -20.94004 36312 ft 439 kts 267°
2026-05-06 01:18 41.84064 -21.01999 36317 ft 439 kts 267°
2026-05-06 01:18 41.82773 -21.09995 36314 ft 439 kts 267°
2026-05-06 01:19 41.81477 -21.17985 36311 ft 438 kts 267°
2026-05-06 01:19 41.80176 -21.25963 36319 ft 438 kts 267°
2026-05-06 01:20 41.78870 -21.33938 36318 ft 438 kts 267°
2026-05-06 01:20 41.77559 -21.41908 36320 ft 438 kts 266°
2026-05-06 01:21 41.76243 -21.49875 36312 ft 438 kts 266°
2026-05-06 01:21 41.74924 -21.57811 36326 ft 436 kts 266°
2026-05-06 01:22 41.73604 -21.65727 36319 ft 436 kts 266°
2026-05-06 01:22 41.72278 -21.73647 36323 ft 436 kts 266°
2026-05-06 01:23 41.70946 -21.81560 36316 ft 436 kts 266°
2026-05-06 01:23 41.69610 -21.89461 36327 ft 434 kts 266°
2026-05-06 01:24 41.68273 -21.97331 36324 ft 434 kts 266°
2026-05-06 01:24 41.66931 -22.05204 36320 ft 434 kts 266°
2026-05-06 01:25 41.65584 -22.13072 36331 ft 434 kts 266°
2026-05-06 01:25 41.64230 -22.20941 36334 ft 434 kts 266°
2026-05-06 01:26 41.62871 -22.28803 36315 ft 434 kts 266°
2026-05-06 01:26 41.61506 -22.36668 36337 ft 434 kts 266°
2026-05-06 01:27 41.60136 -22.44524 36331 ft 434 kts 266°
2026-05-06 01:27 41.58761 -22.52381 36333 ft 434 kts 266°
2026-05-06 01:28 41.57388 -22.60191 36336 ft 434 kts 266°
2026-05-06 01:28 41.56001 -22.68042 36336 ft 434 kts 266°
2026-05-06 01:29 41.54609 -22.75892 36338 ft 434 kts 266°
2026-05-06 01:29 41.53211 -22.83745 36338 ft 435 kts 265°
2026-05-06 01:30 41.51807 -22.91597 36341 ft 435 kts 265°
2026-05-06 01:30 41.50397 -22.99442 36341 ft 435 kts 265°
2026-05-06 01:31 41.48982 -23.07289 36338 ft 435 kts 265°
2026-05-06 01:31 41.47560 -23.15136 36339 ft 435 kts 265°
2026-05-06 01:32 41.46134 -23.22976 36341 ft 435 kts 265°
2026-05-06 01:32 41.44702 -23.30816 36341 ft 435 kts 265°
2026-05-06 01:33 41.43264 -23.38654 36347 ft 435 kts 265°
2026-05-06 01:33 41.41822 -23.46488 36342 ft 435 kts 265°
2026-05-06 01:34 41.40384 -23.54260 36352 ft 435 kts 265°
2026-05-06 01:34 41.38932 -23.62083 36352 ft 435 kts 265°
2026-05-06 01:35 41.37473 -23.69906 36352 ft 435 kts 265°
2026-05-06 01:35 41.36009 -23.77723 36347 ft 435 kts 265°
2026-05-06 01:36 41.34542 -23.85530 36354 ft 434 kts 264°
2026-05-06 01:36 41.33071 -23.93324 36349 ft 434 kts 264°
2026-05-06 01:37 41.31593 -24.01121 36356 ft 434 kts 264°
2026-05-06 01:37 41.30112 -24.08907 36338 ft 434 kts 264°
2026-05-06 01:38 41.28625 -24.16693 36368 ft 434 kts 264°
2026-05-06 01:38 41.27135 -24.24464 36354 ft 434 kts 264°
2026-05-06 01:39 41.25639 -24.32234 36357 ft 434 kts 264°
2026-05-06 01:39 41.24138 -24.40001 36354 ft 434 kts 264°
2026-05-06 01:40 41.22631 -24.47765 36360 ft 434 kts 264°
2026-05-06 01:40 41.21130 -24.55468 36355 ft 434 kts 264°
2026-05-06 01:41 41.19615 -24.63218 36365 ft 434 kts 264°
2026-05-06 01:41 41.18092 -24.70973 36340 ft 434 kts 264°
2026-05-06 01:42 41.16564 -24.78729 36366 ft 434 kts 264°
2026-05-06 01:42 41.15032 -24.86471 36366 ft 434 kts 263°
2026-05-06 01:43 41.13494 -24.94214 36371 ft 434 kts 263°
2026-05-06 01:43 41.11950 -25.01958 36367 ft 434 kts 263°
2026-05-06 01:44 41.10400 -25.09706 36368 ft 435 kts 263°
2026-05-06 01:44 41.08842 -25.17462 36374 ft 435 kts 263°
2026-05-06 01:45 41.07278 -25.25213 36372 ft 435 kts 263°
2026-05-06 01:45 41.05718 -25.32916 36375 ft 436 kts 263°
2026-05-06 01:46 41.04145 -25.40658 36381 ft 436 kts 263°
2026-05-06 01:46 41.02564 -25.48409 36375 ft 436 kts 263°
2026-05-06 01:47 41.00978 -25.56155 36378 ft 436 kts 263°
2026-05-06 01:47 40.99387 -25.63896 36374 ft 436 kts 263°
2026-05-06 01:48 40.97790 -25.71642 36377 ft 437 kts 263°
2026-05-06 01:48 40.96184 -25.79398 36386 ft 437 kts 262°
2026-05-06 01:49 40.94573 -25.87148 36383 ft 437 kts 262°